Home > Weather > Caledon > Past weeks

Flag for Canada Past Weather in Caledon, Ontario, Canada — Yesterday and Last 2 Weeks

Now
81 °F

Scattered clouds.


Feels Like: 81 °F
Forecast: 62 / 87 °F
Wind: 9 mph from Northwest

Location: Borden

Current Time: Jul 25, 2016 at 8:46:38 PM

Latest Report: Jul 25, 2016 at 8:00 PM


Visibility: 9 mi

Pressure: 29.84 "Hg

Humidity: 51%

Dew Point: 61 °F

Location of CaledonLocation

Past Weather in Caledon — Graph

°F

Caledon Temperature Yesterday

Maximum temperature yesterday: 84 °F (at 6:00 PM)
Minimum temperature yesterday: 55 °F (at 6:00 AM)
Average temperature yesterday: 71 °F

High & Low Weather Summary for the Past Weeks

 TemperatureHumidityPressure
High93 °F (Jul 13, 3:00 PM)100% (Jul 14, 8:00 AM)30.29 "Hg (Jul 14, 8:00 AM)
Low43 °F (Jul 17, 4:00 AM)26% (Jul 22, 4:00 PM)29.69 "Hg (Jul 14, 5:00 AM)
Average72 °F66%29.97 "Hg
* Reported Jul 11 10:00 AM — Jul 25 7:00 PM, Caledon, Weather by CustomWeather, © 2016

Note: Actual official high and low records may vary slightly from our data, if they occured in-between our weather recording intervals... More about our weather records

Advertising

Caledon Weather History for the Previous 24 Hours

Scroll right to see more
 ConditionsComfort  
Time TempWeatherWind HumidityBarometerVisibility
7:00 PM
Mon, Jul 25
82 °FPassing clouds.12 mph48%29.82 "Hg9 mi
6:00 PM84 °FPassing clouds.15 mph43%29.83 "Hg9 mi
5:00 PM86 °FScattered clouds.14 mph40%29.83 "Hg9 mi
4:00 PM86 °FPartly sunny.17 mph43%29.83 "Hg9 mi
3:00 PM86 °FPartly sunny.12 mph49%29.82 "Hg9 mi
2:00 PM86 °FPartly sunny.12 mph52%29.82 "Hg9 mi
1:00 PM82 °FPassing clouds.12 mph62%29.83 "Hg9 mi
12:00 PM79 °FSunny.7 mph79%29.82 "Hg9 mi
11:00 AM77 °FSunny.7 mph83%29.82 "Hg9 mi
10:00 AM75 °FOvercast.3 mph94%29.82 "Hg9 mi
9:00 AM75 °FOvercast.5 mph89%29.81 "Hg9 mi
8:00 AM73 °FMostly cloudy.7 mph94%29.81 "Hg9 mi
7:50 AM73 °FPartly sunny.12 mph94%29.82 "Hg9 mi
7:00 AM73 °FPassing clouds.7 mph89%29.79 "Hg9 mi
6:00 AM73 °FPassing clouds.10 mph94%29.79 "Hg9 mi
5:00 AM72 °FPartly cloudy.7 mph94%29.81 "Hg9 mi
4:00 AM72 °FLight rain. Overcast.8 mph94%29.81 "Hg9 mi
3:00 AM73 °FLight rain. Passing clouds.14 mph89%29.82 "Hg9 mi
2:00 AM70 °FPassing clouds.5 mph94%29.83 "Hg9 mi
1:00 AM73 °FPassing clouds.12 mph74%29.85 "Hg9 mi
12:00 AM73 °FPassing clouds.8 mph69%29.87 "Hg9 mi
11:00 PM
Sun, Jul 24
75 °FPassing clouds.9 mph61%29.88 "Hg9 mi
10:00 PM75 °FPassing clouds.9 mph65%29.90 "Hg9 mi
9:00 PM77 °FPassing clouds.14 mph65%29.90 "Hg9 mi
8:00 PM81 °FSunny.13 mph62%29.90 "Hg9 mi
Weather by CustomWeather, © 2016

See weather overviewHow to use our weather pages